WST606 MYNN-MYAM

Flight info

Callsign WST606
Flight time 0h 20m
Altitude 13000
Route ZQA BR70V MRRSH
Aircraft E145/M-SDFGIRW/S

Departure

Time 2026-04-30 19:32
Airport Lynden Pindling International Airport (MYNN)

Arrival

Time 2026-04-30 19:53
Airport Leonard M. Thompson International Airport (MYAM)
Time Latitude Longitude Altitude Speed Heading
2026-04-30 19:15 25.04837 -77.46584 7 ft 0 kts 38°
2026-04-30 19:28 25.04842 -77.46588 7 ft 1 kts 294°
2026-04-30 19:28 25.04802 -77.46638 7 ft 6 kts 224°
2026-04-30 19:29 25.04715 -77.46732 7 ft 10 kts 225°
2026-04-30 19:29 25.04729 -77.46804 7 ft 12 kts 315°
2026-04-30 19:30 25.04960 -77.47060 7 ft 18 kts 317°
2026-04-30 19:30 25.05164 -77.47294 7 ft 22 kts 315°
2026-04-30 19:31 25.05188 -77.47514 7 ft 14 kts 242°
2026-04-30 19:31 25.05164 -77.47548 7 ft 0 kts 195°
2026-04-30 19:31 25.05134 -77.47514 7 ft 22 kts 133°
2026-04-30 19:32 25.04843 -77.47192 7 ft 94 kts 136°
2026-04-30 19:32 25.04238 -77.46523 10 ft 146 kts 138°
2026-04-30 19:32 25.03476 -77.45656 369 ft 163 kts 135°
2026-04-30 19:32 25.02696 -77.44736 1003 ft 167 kts 134°
2026-04-30 19:33 25.02129 -77.43579 1487 ft 183 kts 94°
2026-04-30 19:33 25.02502 -77.42197 1998 ft 201 kts 51°
2026-04-30 19:33 25.03629 -77.41150 2344 ft 230 kts 31°
2026-04-30 19:33 25.05225 -77.40461 2705 ft 256 kts 15°
2026-04-30 19:34 25.06989 -77.39988 3431 ft 262 kts 12°
2026-04-30 19:34 25.08767 -77.39578 4314 ft 262 kts 11°
2026-04-30 19:34 25.12384 -77.38786 5864 ft 268 kts 10°
2026-04-30 19:35 25.14231 -77.38386 6690 ft 269 kts 10°
2026-04-30 19:35 25.16060 -77.37988 7507 ft 268 kts 10°
2026-04-30 19:35 25.17905 -77.37588 8298 ft 268 kts
2026-04-30 19:35 25.19752 -77.37186 9016 ft 271 kts
2026-04-30 19:36 25.21609 -77.36783 9787 ft 272 kts
2026-04-30 19:36 25.23497 -77.36372 10496 ft 275 kts
2026-04-30 19:36 25.27413 -77.35522 11404 ft 295 kts
2026-04-30 19:37 25.29465 -77.35075 11846 ft 305 kts
2026-04-30 19:37 25.31601 -77.34609 12261 ft 315 kts
2026-04-30 19:37 25.33777 -77.34134 12881 ft 319 kts
2026-04-30 19:37 25.36044 -77.33642 12959 ft 340 kts
2026-04-30 19:38 25.38457 -77.33116 12951 ft 359 kts
2026-04-30 19:38 25.40940 -77.32574 12947 ft 363 kts
2026-04-30 19:38 25.43437 -77.32029 12941 ft 363 kts
2026-04-30 19:38 25.45922 -77.31486 12936 ft 363 kts
2026-04-30 19:39 25.48434 -77.30938 12947 ft 363 kts
2026-04-30 19:39 25.50952 -77.30388 12940 ft 363 kts
2026-04-30 19:39 25.53425 -77.29848 12934 ft 363 kts
2026-04-30 19:39 25.55911 -77.29305 12941 ft 362 kts
2026-04-30 19:40 25.58385 -77.28764 12946 ft 362 kts
2026-04-30 19:40 25.60880 -77.28219 12940 ft 361 kts
2026-04-30 19:40 25.63379 -77.27671 12943 ft 361 kts
2026-04-30 19:40 25.65845 -77.27132 12944 ft 361 kts
2026-04-30 19:41 25.68323 -77.26588 12945 ft 360 kts
2026-04-30 19:41 25.70787 -77.26049 12940 ft 360 kts
2026-04-30 19:41 25.73284 -77.25501 12940 ft 360 kts
2026-04-30 19:41 25.75748 -77.24961 12940 ft 360 kts
2026-04-30 19:42 25.78215 -77.24419 12945 ft 360 kts
2026-04-30 19:42 25.80704 -77.23874 12948 ft 360 kts
2026-04-30 19:42 25.83146 -77.23338 12944 ft 360 kts
2026-04-30 19:42 25.85609 -77.22796 12947 ft 359 kts
2026-04-30 19:43 25.88082 -77.22253 12946 ft 359 kts
2026-04-30 19:43 25.90538 -77.21712 12945 ft 359 kts
2026-04-30 19:43 25.93038 -77.21162 12944 ft 360 kts
2026-04-30 19:44 25.97946 -77.20083 12946 ft 359 kts
2026-04-30 19:44 26.00426 -77.19494 12940 ft 361 kts 13°
2026-04-30 19:44 26.02803 -77.18564 12945 ft 363 kts 16°
2026-04-30 19:44 26.05190 -77.17599 12944 ft 363 kts 16°
2026-04-30 19:45 26.07592 -77.16617 12946 ft 363 kts 17°
2026-04-30 19:45 26.09969 -77.15641 12898 ft 365 kts 17°
2026-04-30 19:45 26.12345 -77.14663 12676 ft 360 kts 17°
2026-04-30 19:45 26.14708 -77.13689 12455 ft 355 kts 17°
2026-04-30 19:46 26.17027 -77.12735 12181 ft 351 kts 17°
2026-04-30 19:46 26.19339 -77.11783 11888 ft 349 kts 17°
2026-04-30 19:46 26.21582 -77.10857 11600 ft 340 kts 17°
2026-04-30 19:46 26.23783 -77.09950 11308 ft 332 kts 17°
2026-04-30 19:47 26.25963 -77.09050 11013 ft 325 kts 17°
2026-04-30 19:47 26.27367 -77.08471 10815 ft 321 kts 17°
2026-04-30 19:47 26.30139 -77.07327 10425 ft 314 kts 17°
2026-04-30 19:47 26.32177 -77.06484 9982 ft 307 kts 18°
2026-04-30 19:48 26.34141 -77.05672 9360 ft 294 kts 18°
2026-04-30 19:48 26.36025 -77.04893 8723 ft 279 kts 18°
2026-04-30 19:48 26.37798 -77.04160 8093 ft 268 kts 18°
2026-04-30 19:48 26.39509 -77.03430 7456 ft 261 kts 22°
2026-04-30 19:49 26.41145 -77.02532 6728 ft 259 kts 25°
2026-04-30 19:49 26.44398 -77.00741 5121 ft 261 kts 25°
2026-04-30 19:49 26.45987 -76.99865 4492 ft 246 kts 25°
2026-04-30 19:50 26.47495 -76.99031 3919 ft 234 kts 25°
2026-04-30 19:50 26.48988 -76.98508 3493 ft 218 kts
2026-04-30 19:50 26.50436 -76.98757 2865 ft 204 kts 333°
2026-04-30 19:50 26.51477 -76.99721 1991 ft 189 kts 296°
2026-04-30 19:51 26.51631 -77.01025 1671 ft 154 kts 255°
2026-04-30 19:51 26.51366 -77.02071 1483 ft 128 kts 256°
2026-04-30 19:51 26.51243 -77.03037 1068 ft 124 kts 263°
2026-04-30 19:51 26.51203 -77.03957 799 ft 117 kts 264°
2026-04-30 19:52 26.51134 -77.04894 587 ft 122 kts 261°
2026-04-30 19:52 26.51102 -77.05842 396 ft 124 kts 266°
2026-04-30 19:52 26.51060 -77.06804 197 ft 123 kts 264°
2026-04-30 19:52 26.51034 -77.07749 21 ft 115 kts 267°
2026-04-30 19:53 26.51016 -77.08443 17 ft 38 kts 269°
2026-04-30 19:53 26.51014 -77.08521 16 ft 0 kts 271°
2026-04-30 19:53 26.51016 -77.08524 16 ft 1 kts 311°
2026-04-30 19:53 26.51036 -77.08526 16 ft 4 kts 358°
2026-04-30 19:54 26.51078 -77.08529 16 ft 7 kts 356°
2026-04-30 19:54 26.51135 -77.08516 16 ft 9 kts 61°
2026-04-30 19:54 26.51141 -77.08433 16 ft 11 kts 88°
2026-04-30 19:54 26.51143 -77.08333 17 ft 13 kts 88°
2026-04-30 19:55 26.51145 -77.08217 17 ft 15 kts 89°
2026-04-30 19:55 26.51149 -77.08084 18 ft 18 kts 88°
2026-04-30 19:55 26.51153 -77.07940 17 ft 12 kts 83°
2026-04-30 19:55 26.51199 -77.07844 16 ft 15 kts 56°
2026-04-30 19:56 26.51264 -77.07801 15 ft 6 kts 343°
2026-04-30 19:56 26.51274 -77.07806 15 ft 0 kts 327°